Weather in Shabelskoye

Russia / Krasnodar Krai     46°51′07″N   38°28′23″E
temp.,
°C
wind,
m/s
gust,
m/s
humid.,
%
clouds,
%
prec.,
mm/h
press.,
hPa
HPBL,
m
23 september, thu
thu2300:00+13ssw2358100 0.0 1014450
03:00+13sw2362100 0.1 1013317
06:00+12sw1267100 0.1 1013276
09:00+13sse2263100 0.1 1013711
12:00+16s1250100 0.0 10121241
15:00+15w3457100 0.4 1012995
18:00+13nnw327116 0.5 1013494
21:00+12nw2277100 0.8 1013156
24 september, fri
fri2400:00+12nnw3473100 0.1 1013271
03:00+12nnw3471100 0.2 1013299
06:00+12nw337087 0.1 1013286
09:00+13nw336081 0.2 1014857
12:00+14w5654100 0.0 10141522
15:00+15wsw575585 0.0 10131567
18:00+14wsw6960100 0.1 10131280
21:00+13sw61077100 0.8 1012864
25 september, sat
sat2500:00+13ssw81289100 3.1 1009788
03:00+14wnw811765 11.8 1008634
06:00+14w69753 0.3 1008520
09:00+14wnw81069100 0.3 10101128
12:00+15w9116378 0.3 10111485
15:00+15wnw10116255 1.2 10131377
18:00+14wnw9116795 0.4 10151135
21:00+14wnw8116817 0.9 1017762
26 september, sun
sun2600:00+13nw69715 0.0 1019547
03:00+13wnw57745 0.1 1019384
06:00+12w47738 0.0 1020348
09:00+14wsw6977100 0.2 1020625
12:00+17w91269100 0.1 10181099
15:00+18w91271100 0.6 1017922
18:00+18wnw10146797 0.3 1016849
21:00+17nw8117258 0.6 1017730
27 september, mon
mon2700:00+15nw69650 0.1 1017423
03:00+14nnw68730 0.1 1017357
06:00+12nnw57780 0.0 1017346
09:00+13nnw55710 0.0 1018680
12:00+14nnw44632 0.0 1018936
15:00+15n555637 0.0 10181299
18:00+14nne34600 0.0 1019475
21:00+14ne35625 0.0 1019288